User: anonymous   Login
Location: アルンシュタイン
(50.0000°N, 10.0000°E)
Time: 21:08:10
(UTC+02:00)
Language:

ISS - Orbit

View from above orbital plane
View from above orbital plane
View from above satellite
View from above satellite

Ground track
Ground track

The orbit data is extracted from the following two-line orbital elements,

1 25544U 98067A   24198.43697036  .00015997  00000-0  28820-3 0  9996
2 25544  51.6395 170.4296 0010551  71.7559  70.6267 15.49904252463086
Epoch (UTC): 16 July 2024 10:29:14
Eccentricity: 0.0010551
inclination: 51.6395°
perigee height: 410 km
apogee height: 424 km
right ascension of ascending node: 170.4296°
argument of perigee: 71.7559°
revolutions per day: 15.49904252
mean anomaly at epoch: 70.6267°
orbit number at epoch: 46308

The dashed part of the orbit path shows where the satellite is in the earth's shadow,  

DLR